Retour au catalogue

SL-16 DEB

ActifLEO
NORAD 16390·DEBRIS·🇷🇺 Russia

Lancé Oct 22, 1985 depuis Baikonur Cosmodrome

Loading…

Prochains Passages (prochaines 24 heures)

TLE

FraisSource: Space-Track

Époque: Sep 14, 2026, 07:55 UTC

1 16390U 85097D   26257.33004883  .00000072  00000-0  10813-3 0  9994
2 16390  70.9741 132.6436 0208281 292.2165  65.6957 13.72756548 47065

Suivez SL-16 DEB en temps réel avec AllMySat

Download on the App Store